Terug naar catalogus

STARLINK-2569

ActiefCommunicatieVLEO
NORAD 48277·PAYLOAD·🇺🇸 United States

Gelanceerd Apr 29, 2021 vanaf Cape Canaveral Space Force Station

Loading…

Volgende Passages (komende 24 uur)

TLE

VersSource: CelesTrak SupGP

Epoch: Sep 14, 2026, 21:07 UTC

1 48277C 21036B   26257.88034722  .00037562  00000+0  95929-3 0  2572
2 48277  53.1219 209.8002 0004550  78.5749 353.1084 15.38878599    14

Volg STARLINK-2569 in realtime met AllMySat

Download on the App Store